Flag for U.S.A. Weather past 2 weeks in Greenville, South Carolina, U.S.A.

Now
81 °F

Mostly cloudy.


Feels Like: 83 °F
Forecast: 69 / 86 °F
Wind: 7 mph from Southeast

Location: Greenville Downtown Airport

Current Time: Jul 25, 2014 at 2:36:32 PM

Latest Report: Jul 25, 2014 at 1:53 PM


Visibility: 10 mi

Pressure: 30.01 "Hg

Humidity: 60%

Dew point: 66 °F

Location of GreenvilleLocation

Historic Weather in Greenville — Graph

°F

Greenville temperature yesterday

Maximum temperature yesterday: 87 °F (at 1:53 PM)
Minimum temperature yesterday: 72 °F (at 6:53 AM)
Average temperature yesterday: 79 °F

Past Weeks' High & Low Weather Summary

 TemperatureHumidityPressure
High92 °F (Jul 14, 1:53 PM)93% (Jul 11, 6:53 AM)30.23 "Hg (Jul 11, 6:53 AM)
Low65 °F (Jul 19, 9:53 PM)37% (Jul 17, 12:53 PM)29.76 "Hg (Jul 15, 5:53 PM)
Average76 °F73%30.05 "Hg
* Reported Jul 10 12:53 PM — Jul 25 12:53 PM, Greenville, Weather by CustomWeather, © 2014

Note: Actual official high and low records may vary slightly from our data, if they occured in-between our weather recording intervals... More about our weather records

Advertising

Greenville weather history for previous 24 hours

 ConditionsComfort  
Time TempWeatherWind HumidityBarometerVisibility
12:53 PM
Jul 25
83 °FPartly sunny.5 mph59%30.04 "Hg10 mi
11:53 AM80 °FMostly cloudy.8 mph64%30.06 "Hg10 mi
10:53 AM79 °FPassing clouds.7 mph67%30.04 "Hg10 mi
9:53 AM77 °FPassing clouds.7 mph69%30.05 "Hg10 mi
8:53 AM74 °FMostly cloudy.9 mph76%30.05 "Hg10 mi
7:53 AM72 °FScattered clouds.10 mph84%30.03 "Hg10 mi
7:03 AM71 °FPassing clouds.8 mph87%30.05 "Hg10 mi
6:53 AM71 °FPassing clouds.8 mph87%30.02 "Hg10 mi
5:53 AM71 °FPassing clouds.7 mph84%29.99 "Hg10 mi
4:53 AM72 °FPassing clouds.7 mph81%29.96 "Hg10 mi
3:53 AM73 °FClear.7 mph76%29.96 "Hg10 mi
2:53 AM74 °FPassing clouds.6 mph79%29.97 "Hg10 mi
1:53 AM75 °FPartly cloudy.9 mph76%29.97 "Hg10 mi
12:53 AM77 °FPassing clouds.5 mph71%29.97 "Hg10 mi
11:53 PM
Jul 24
77 °FPassing clouds.8 mph71%29.95 "Hg10 mi
10:53 PM78 °FPassing clouds.9 mph69%29.93 "Hg10 mi
9:53 PM79 °FClear.6 mph72%29.92 "Hg10 mi
8:53 PM81 °FSunny.7 mph69%29.90 "Hg10 mi
7:53 PM83 °FSunny.10 mph65%29.88 "Hg10 mi
6:53 PM84 °FPassing clouds.6 mph63%29.87 "Hg10 mi
5:53 PM85 °FSunny.10 mph59%29.89 "Hg10 mi
4:53 PM85 °FSunny.15 mph59%29.88 "Hg10 mi
3:53 PM85 °FSunny.10 mph57%29.88 "Hg10 mi
2:53 PM87 °FPartly sunny.10 mph55%29.88 "Hg10 mi
Weather by CustomWeather, © 2014

See weather overviewHow to use our weather pages